Terminal Aerodrome Forecast
Issued by NWS

Home | Current Version | Previous Version | Text Only | Print | Product List | Glossary On
Versions: 1 2 3 4 5 6 7 8 9 10 11 12 13 14 15 16 17 18 19 20 21 22 23 24 25 26
000
FTUS45 KSLC 220906 AAA
TAFEVW
TAF AMD
KEVW 220906Z 2209/2306 VRB05KT P6SM VCSH SCT025 BKN070
      TEMPO 2209/2210 5SM -RA BR SCT015 BKN040
     FM221800 25012KT P6SM SCT090=

USA.gov is the U.S. government's official web portal to all federal, state and local government web resources and services.